Time,TemperatureF,DewpointF,PressureIn,WindDirection,WindDirectionDegrees,WindSpeedMPH,WindSpeedGustMPH,Humidity,HourlyPrecipIn,Conditions,Clouds,dailyrainin,SoftwareType,DateUTC
2013-05-21 00:03:00,74.0,65.0,29.91,SW,230,0.0,2.0,73,0.00,,,0.00,,2013-05-21 04:03:00,
2013-05-21 00:13:00,74.0,66.0,29.91,SW,229,1.0,3.0,75,0.00,,,0.00,,2013-05-21 04:13:00,
2013-05-21 00:23:00,74.0,66.0,29.91,SW,229,1.0,3.0,75,0.00,,,0.00,,2013-05-21 04:23:00,
2013-05-21 00:33:00,73.0,65.0,29.91,SSW,205,0.0,0.0,75,0.00,,,0.00,,2013-05-21 04:33:00,
2013-05-21 00:42:00,73.0,65.0,29.91,SSW,205,0.0,0.0,75,0.00,,,0.00,,2013-05-21 04:42:00,
2013-05-21 00:52:00,73.0,65.0,29.91,SW,218,2.0,5.0,75,0.00,,,0.00,,2013-05-21 04:52:00,
2013-05-21 01:02:00,73.0,65.0,29.91,SSW,211,3.0,5.0,76,0.00,,,0.00,,2013-05-21 05:02:00,
2013-05-21 01:12:00,72.0,64.0,29.91,SW,230,1.0,2.0,76,0.00,,,0.00,,2013-05-21 05:12:00,
2013-05-21 01:22:00,72.0,64.0,29.91,SW,230,1.0,2.0,76,0.00,,,0.00,,2013-05-21 05:22:00,
2013-05-21 01:32:00,72.0,65.0,29.90,SW,230,2.0,6.0,78,0.00,,,0.00,,2013-05-21 05:32:00,
2013-05-21 01:42:00,72.0,65.0,29.90,SSW,196,0.0,5.0,78,0.00,,,0.00,,2013-05-21 05:42:00,
2013-05-21 01:51:00,72.0,65.0,29.90,SSW,196,0.0,5.0,78,0.00,,,0.00,,2013-05-21 05:51:00,
2013-05-21 02:02:00,72.0,65.0,29.91,SW,228,5.0,7.0,79,0.00,,,0.00,,2013-05-21 06:02:00,
2013-05-21 02:12:00,72.0,65.0,29.92,West,271,0.0,0.0,79,0.00,,,0.00,,2013-05-21 06:12:00,
2013-05-21 02:21:00,72.0,65.0,29.92,West,271,0.0,0.0,79,0.00,,,0.00,,2013-05-21 06:21:00,
2013-05-21 02:32:00,71.0,65.0,29.92,West,278,0.0,0.0,81,0.00,,,0.00,,2013-05-21 06:32:00,
2013-05-21 02:42:00,71.0,65.0,29.92,West,278,0.0,0.0,81,0.00,,,0.00,,2013-05-21 06:42:00,
2013-05-21 02:52:00,71.0,65.0,29.92,SW,226,3.0,5.0,81,0.00,,,0.00,,2013-05-21 06:52:00,
2013-05-21 03:01:00,71.0,65.0,29.91,West,263,3.0,6.0,81,0.00,,,0.00,,2013-05-21 07:01:00,
2013-05-21 03:11:00,71.0,65.0,29.91,WSW,238,5.0,6.0,81,0.00,,,0.00,,2013-05-21 07:11:00,
2013-05-21 03:22:00,71.0,65.0,29.91,WSW,238,5.0,6.0,81,0.00,,,0.00,,2013-05-21 07:22:00,
2013-05-21 03:31:00,71.0,65.0,29.90,WSW,241,5.0,6.0,82,0.00,,,0.00,,2013-05-21 07:31:00,
2013-05-21 03:41:00,71.0,65.0,29.90,WSW,241,5.0,6.0,82,0.00,,,0.00,,2013-05-21 07:41:00,
2013-05-21 03:52:00,71.0,65.0,29.90,West,261,3.0,3.0,82,0.00,,,0.00,,2013-05-21 07:52:00,
2013-05-21 04:02:00,71.0,65.0,29.90,WSW,251,3.0,6.0,82,0.00,,,0.00,,2013-05-21 08:02:00,
2013-05-21 04:11:00,70.0,64.0,29.90,SW,220,2.0,5.0,82,0.00,,,0.00,,2013-05-21 08:11:00,
2013-05-21 04:21:00,70.0,64.0,29.90,SW,220,2.0,5.0,82,0.00,,,0.00,,2013-05-21 08:21:00,
2013-05-21 04:31:00,71.0,66.0,29.89,SW,230,2.0,5.0,84,0.00,,,0.00,,2013-05-21 08:31:00,
2013-05-21 04:41:00,70.0,65.0,29.89,SW,233,5.0,5.0,84,0.00,,,0.00,,2013-05-21 08:41:00,
2013-05-21 04:52:00,70.0,65.0,29.89,SW,233,5.0,5.0,84,0.00,,,0.00,,2013-05-21 08:52:00,
2013-05-21 05:01:00,70.0,65.0,29.89,WSW,238,0.0,5.0,84,0.00,,,0.00,,2013-05-21 09:01:00,
2013-05-21 05:11:00,70.0,65.0,29.89,SW,236,5.0,5.0,84,0.00,,,0.00,,2013-05-21 09:11:00,
2013-05-21 05:21:00,70.0,65.0,29.89,SW,236,5.0,5.0,84,0.00,,,0.00,,2013-05-21 09:21:00,
2013-05-21 05:33:00,70.0,64.0,29.92,NNW,340,0.0,3.0,82,0.00,,,0.00,,2013-05-21 09:33:00,
2013-05-21 05:42:00,70.0,64.0,29.92,NNW,340,0.0,3.0,82,0.00,,,0.00,,2013-05-21 09:42:00,
2013-05-21 05:52:00,69.0,63.0,29.93,NW,326,2.0,3.0,81,0.00,,,0.00,,2013-05-21 09:52:00,
2013-05-21 06:03:00,68.0,61.0,29.92,NW,313,0.0,0.0,78,0.00,,,0.00,,2013-05-21 10:03:00,
2013-05-21 06:12:00,68.0,61.0,29.92,NW,313,0.0,0.0,78,0.00,,,0.00,,2013-05-21 10:12:00,
2013-05-21 06:22:00,68.0,61.0,29.92,NW,313,0.0,0.0,78,0.00,,,0.00,,2013-05-21 10:22:00,
2013-05-21 06:32:00,68.0,61.0,29.91,NW,313,0.0,0.0,78,0.00,,,0.00,,2013-05-21 10:32:00,
2013-05-21 06:42:00,67.0,60.0,29.91,NW,313,0.0,0.0,78,0.00,,,0.00,,2013-05-21 10:42:00,
2013-05-21 06:52:00,67.0,60.0,29.91,NW,313,0.0,0.0,78,0.00,,,0.00,,2013-05-21 10:52:00,
2013-05-21 07:02:00,67.0,61.0,29.91,NW,313,0.0,0.0,81,0.00,,,0.00,,2013-05-21 11:02:00,
2013-05-21 07:12:00,67.0,61.0,29.91,NW,313,0.0,0.0,81,0.00,,,0.00,,2013-05-21 11:12:00,
2013-05-21 07:21:00,67.0,61.0,29.91,NW,313,0.0,0.0,81,0.00,,,0.00,,2013-05-21 11:21:00,
2013-05-21 07:32:00,67.0,61.0,29.91,WSW,241,2.0,5.0,81,0.00,,,0.00,,2013-05-21 11:32:00,
2013-05-21 07:42:00,67.0,61.0,29.91,WSW,241,2.0,5.0,81,0.00,,,0.00,,2013-05-21 11:42:00,
2013-05-21 07:51:00,67.0,61.0,29.92,SW,217,0.0,0.0,82,0.00,,,0.00,,2013-05-21 11:51:00,
2013-05-21 08:01:00,67.0,61.0,29.93,SW,217,0.0,0.0,82,0.00,,,0.00,,2013-05-21 12:01:00,
2013-05-21 08:11:00,67.0,61.0,29.93,SW,217,0.0,0.0,82,0.00,,,0.00,,2013-05-21 12:11:00,
2013-05-21 08:21:00,68.0,62.0,29.94,WSW,243,1.0,0.0,82,0.00,,,0.00,,2013-05-21 12:21:00,
2013-05-21 08:32:00,68.0,62.0,29.93,SSW,199,0.0,0.0,82,0.00,,,0.00,,2013-05-21 12:32:00,
2013-05-21 08:42:00,68.0,62.0,29.93,SSW,199,0.0,0.0,82,0.00,,,0.00,,2013-05-21 12:42:00,
2013-05-21 08:51:00,69.0,63.0,29.94,SSW,205,0.0,0.0,81,0.00,,,0.00,,2013-05-21 12:51:00,
2013-05-21 09:01:00,70.0,64.0,29.96,SSW,205,0.0,0.0,80,0.00,,,0.00,,2013-05-21 13:01:00,
2013-05-21 09:12:00,70.0,64.0,29.96,SSW,205,0.0,0.0,80,0.00,,,0.00,,2013-05-21 13:12:00,
2013-05-21 09:22:00,69.0,62.0,30.00,West,276,1.0,3.0,79,0.00,,,0.00,,2013-05-21 13:22:00,
2013-05-21 09:32:00,69.0,63.0,29.96,WNW,285,0.0,0.0,82,0.00,,,0.00,,2013-05-21 13:32:00,
2013-05-21 09:41:00,69.0,64.0,29.94,SSW,202,0.0,0.0,84,0.00,,,0.00,,2013-05-21 13:41:00,
2013-05-21 09:52:00,69.0,64.0,29.94,SSW,202,0.0,0.0,84,0.00,,,0.00,,2013-05-21 13:52:00,
2013-05-21 10:02:00,71.0,66.0,29.93,ESE,107,0.0,0.0,83,0.00,,,0.00,,2013-05-21 14:02:00,
2013-05-21 10:11:00,72.0,66.0,29.92,ESE,115,0.0,3.0,82,0.00,,,0.00,,2013-05-21 14:11:00,
2013-05-21 10:21:00,72.0,66.0,29.92,ESE,115,0.0,3.0,82,0.00,,,0.00,,2013-05-21 14:21:00,
2013-05-21 10:32:00,71.0,65.0,29.90,South,169,0.0,0.0,81,0.00,,,0.00,,2013-05-21 14:32:00,
2013-05-21 10:41:00,72.0,65.0,29.90,SW,217,1.0,0.0,79,0.00,,,0.00,,2013-05-21 14:41:00,
2013-05-21 10:51:00,72.0,65.0,29.90,SW,217,1.0,0.0,79,0.00,,,0.00,,2013-05-21 14:51:00,
2013-05-21 11:01:00,73.0,66.0,29.89,South,180,7.0,8.0,78,0.00,,,0.00,,2013-05-21 15:01:00,
2013-05-21 11:11:00,74.0,66.0,29.89,SSW,198,1.0,3.0,75,0.00,,,0.00,,2013-05-21 15:11:00,
2013-05-21 11:21:00,74.0,66.0,29.89,SSW,198,1.0,3.0,75,0.00,,,0.00,,2013-05-21 15:21:00,
2013-05-21 11:33:00,75.0,64.0,29.90,SSW,207,5.0,10.0,69,0.01,,,0.01,,2013-05-21 15:33:00,
2013-05-21 11:42:00,75.0,64.0,29.90,SSW,213,7.0,7.0,69,0.01,,,0.01,,2013-05-21 15:42:00,
2013-05-21 11:52:00,75.0,64.0,29.90,SSW,213,7.0,7.0,69,0.01,,,0.01,,2013-05-21 15:52:00,
2013-05-21 12:03:00,76.0,63.0,29.89,SW,228,7.0,10.0,65,0.01,,,0.01,,2013-05-21 16:03:00,
2013-05-21 12:13:00,77.0,63.0,29.89,SSW,203,3.0,5.0,62,0.01,,,0.01,,2013-05-21 16:13:00,
2013-05-21 12:23:00,77.0,63.0,29.89,SSW,203,3.0,5.0,62,0.01,,,0.01,,2013-05-21 16:23:00,
2013-05-21 12:32:00,77.0,62.0,29.88,SSW,210,1.0,5.0,59,0.00,,,0.01,,2013-05-21 16:32:00,
2013-05-21 12:42:00,78.0,62.0,29.89,SSW,212,8.0,12.0,59,0.00,,,0.01,,2013-05-21 16:42:00,
2013-05-21 12:52:00,78.0,62.0,29.89,SSW,212,8.0,12.0,59,0.00,,,0.01,,2013-05-21 16:52:00,
2013-05-21 13:02:00,80.0,63.0,29.88,SW,219,7.0,12.0,57,0.00,,,0.01,,2013-05-21 17:02:00,
2013-05-21 13:12:00,79.0,61.0,29.89,WSW,247,5.0,6.0,54,0.00,,,0.01,,2013-05-21 17:12:00,
2013-05-21 13:23:00,79.0,61.0,29.89,WSW,247,5.0,6.0,54,0.00,,,0.01,,2013-05-21 17:23:00,
2013-05-21 13:33:00,81.0,61.0,29.88,WSW,247,6.0,7.0,50,0.00,,,0.01,,2013-05-21 17:33:00,
2013-05-21 13:43:00,81.0,61.0,29.87,WSW,244,6.0,7.0,50,0.00,,,0.01,,2013-05-21 17:43:00,
2013-05-21 13:52:00,81.0,61.0,29.87,WSW,244,6.0,7.0,50,0.00,,,0.01,,2013-05-21 17:52:00,
2013-05-21 14:02:00,82.0,60.0,29.86,SW,231,7.0,9.0,48,0.00,,,0.01,,2013-05-21 18:02:00,
2013-05-21 14:12:00,82.0,60.0,29.86,WSW,237,6.0,9.0,48,0.00,,,0.01,,2013-05-21 18:12:00,
2013-05-21 14:22:00,82.0,60.0,29.86,WSW,237,6.0,9.0,48,0.00,,,0.01,,2013-05-21 18:22:00,
2013-05-21 14:32:00,83.0,60.0,29.87,SW,232,6.0,8.0,46,0.00,,,0.01,,2013-05-21 18:32:00,
2013-05-21 14:42:00,83.0,58.0,29.87,SW,235,5.0,9.0,43,0.00,,,0.01,,2013-05-21 18:42:00,
2013-05-21 14:51:00,83.0,58.0,29.87,SW,235,5.0,9.0,43,0.00,,,0.01,,2013-05-21 18:51:00,
2013-05-21 15:01:00,84.0,58.0,29.88,WSW,238,6.0,12.0,41,0.00,,,0.01,,2013-05-21 19:01:00,
2013-05-21 15:11:00,84.0,58.0,29.88,SW,226,8.0,10.0,41,0.00,,,0.01,,2013-05-21 19:11:00,
2013-05-21 15:21:00,84.0,58.0,29.88,SW,226,8.0,10.0,41,0.00,,,0.01,,2013-05-21 19:21:00,
2013-05-21 15:32:00,84.0,56.0,29.88,WSW,237,5.0,12.0,39,0.00,,,0.01,,2013-05-21 19:32:00,
2013-05-21 15:42:00,85.0,57.0,29.88,SSW,213,6.0,10.0,38,0.00,,,0.01,,2013-05-21 19:42:00,
2013-05-21 15:52:00,85.0,57.0,29.88,SSW,213,6.0,10.0,38,0.00,,,0.01,,2013-05-21 19:52:00,
2013-05-21 16:03:00,84.0,56.0,29.87,West,266,6.0,9.0,38,0.00,,,0.01,,2013-05-21 20:03:00,
2013-05-21 16:11:00,85.0,57.0,29.87,West,270,2.0,5.0,38,0.00,,,0.01,,2013-05-21 20:11:00,
2013-05-21 16:22:00,85.0,57.0,29.87,West,270,2.0,5.0,38,0.00,,,0.01,,2013-05-21 20:22:00,
2013-05-21 16:32:00,85.0,57.0,29.87,SW,223,1.0,3.0,38,0.00,,,0.01,,2013-05-21 20:32:00,
2013-05-21 16:42:00,86.0,57.0,29.86,SW,216,0.0,6.0,38,0.00,,,0.01,,2013-05-21 20:42:00,
2013-05-21 16:52:00,86.0,57.0,29.86,SW,216,0.0,6.0,38,0.00,,,0.01,,2013-05-21 20:52:00,
2013-05-21 17:02:00,86.0,59.0,29.86,SW,226,2.0,3.0,40,0.00,,,0.01,,2013-05-21 21:02:00,
2013-05-21 17:11:00,86.0,58.0,29.85,SW,226,3.0,8.0,39,0.00,,,0.01,,2013-05-21 21:11:00,
2013-05-21 17:21:00,86.0,58.0,29.85,SW,226,3.0,8.0,39,0.00,,,0.01,,2013-05-21 21:21:00,
2013-05-21 17:33:00,87.0,58.0,29.85,SW,221,3.0,6.0,37,0.00,,,0.01,,2013-05-21 21:33:00,
2013-05-21 17:43:00,86.0,56.0,29.85,SW,226,3.0,9.0,36,0.00,,,0.01,,2013-05-21 21:43:00,
2013-05-21 17:53:00,86.0,56.0,29.85,SW,226,3.0,9.0,36,0.00,,,0.01,,2013-05-21 21:53:00,
2013-05-21 18:02:00,85.0,57.0,29.83,West,267,2.0,7.0,38,0.00,,,0.01,,2013-05-21 22:02:00,
2013-05-21 18:12:00,85.0,57.0,29.83,West,263,0.0,0.0,39,0.00,,,0.01,,2013-05-21 22:12:00,
2013-05-21 18:22:00,85.0,57.0,29.83,West,263,0.0,0.0,39,0.00,,,0.01,,2013-05-21 22:22:00,
2013-05-21 18:33:00,84.0,58.0,29.83,SW,229,3.0,6.0,41,0.00,,,0.01,,2013-05-21 22:33:00,
2013-05-21 18:42:00,83.0,57.0,29.83,SW,224,3.0,7.0,41,0.00,,,0.01,,2013-05-21 22:42:00,
2013-05-21 18:52:00,83.0,57.0,29.83,SW,224,3.0,7.0,41,0.00,,,0.01,,2013-05-21 22:52:00,
2013-05-21 19:02:00,83.0,57.0,29.82,West,269,1.0,7.0,41,0.00,,,0.01,,2013-05-21 23:02:00,
2013-05-21 19:12:00,84.0,57.0,29.81,SW,217,3.0,9.0,40,0.00,,,0.01,,2013-05-21 23:12:00,
2013-05-21 19:22:00,84.0,57.0,29.81,SW,217,3.0,9.0,40,0.00,,,0.01,,2013-05-21 23:22:00,
2013-05-21 19:32:00,82.0,55.0,29.81,SW,221,5.0,7.0,40,0.00,,,0.01,,2013-05-21 23:32:00,
2013-05-21 19:42:00,82.0,56.0,29.81,SW,224,6.0,6.0,41,0.00,,,0.01,,2013-05-21 23:42:00,
2013-05-21 19:52:00,82.0,56.0,29.81,SW,224,6.0,6.0,41,0.00,,,0.01,,2013-05-21 23:52:00,
2013-05-21 20:01:00,80.0,58.0,29.82,SSW,204,1.0,6.0,47,0.00,,,0.01,,2013-05-22 00:01:00,
2013-05-21 20:11:00,80.0,59.0,29.82,SSW,198,6.0,6.0,48,0.00,,,0.01,,2013-05-22 00:11:00,
2013-05-21 20:21:00,80.0,59.0,29.82,SSW,198,6.0,6.0,48,0.00,,,0.01,,2013-05-22 00:21:00,
2013-05-21 20:32:00,78.0,59.0,29.83,SW,233,6.0,7.0,53,0.00,,,0.01,,2013-05-22 00:32:00,
2013-05-21 20:41:00,77.0,59.0,29.83,SW,227,6.0,8.0,54,0.00,,,0.01,,2013-05-22 00:41:00,
2013-05-21 20:51:00,77.0,59.0,29.83,SW,227,6.0,8.0,54,0.00,,,0.01,,2013-05-22 00:51:00,
2013-05-21 21:01:00,75.0,59.0,29.83,SW,235,3.0,7.0,57,0.00,,,0.01,,2013-05-22 01:01:00,
2013-05-21 21:11:00,75.0,59.0,29.83,SW,227,5.0,5.0,58,0.00,,,0.01,,2013-05-22 01:11:00,
2013-05-21 21:21:00,75.0,59.0,29.83,SW,227,5.0,5.0,58,0.00,,,0.01,,2013-05-22 01:21:00,
2013-05-21 21:32:00,74.0,60.0,29.83,SW,217,6.0,6.0,61,0.00,,,0.01,,2013-05-22 01:32:00,
2013-05-21 21:42:00,73.0,59.0,29.83,SW,226,5.0,5.0,62,0.00,,,0.01,,2013-05-22 01:42:00,
2013-05-21 21:52:00,73.0,59.0,29.83,SW,226,5.0,5.0,62,0.00,,,0.01,,2013-05-22 01:52:00,
2013-05-21 22:01:00,72.0,60.0,29.84,SW,224,5.0,7.0,66,0.00,,,0.01,,2013-05-22 02:01:00,
2013-05-21 22:11:00,72.0,60.0,29.84,SW,233,3.0,5.0,67,0.00,,,0.01,,2013-05-22 02:11:00,
2013-05-21 22:21:00,72.0,60.0,29.84,SW,233,3.0,5.0,67,0.00,,,0.01,,2013-05-22 02:21:00,
2013-05-21 22:32:00,71.0,61.0,29.85,WSW,239,1.0,5.0,70,0.00,,,0.01,,2013-05-22 02:32:00,
2013-05-21 22:42:00,71.0,61.0,29.85,SSW,208,3.0,5.0,70,0.00,,,0.01,,2013-05-22 02:42:00,
2013-05-21 22:51:00,71.0,61.0,29.85,SSW,208,3.0,5.0,70,0.00,,,0.01,,2013-05-22 02:51:00,
2013-05-21 23:01:00,70.0,61.0,29.85,SW,214,6.0,7.0,72,0.00,,,0.01,,2013-05-22 03:01:00,
2013-05-21 23:11:00,70.0,61.0,29.85,SW,233,5.0,7.0,73,0.00,,,0.01,,2013-05-22 03:11:00,
2013-05-21 23:21:00,70.0,61.0,29.85,SW,233,5.0,7.0,73,0.00,,,0.01,,2013-05-22 03:21:00,
2013-05-21 23:33:00,70.0,61.0,29.85,SW,220,3.0,5.0,73,0.00,,,0.01,,2013-05-22 03:33:00,
2013-05-21 23:43:00,68.0,59.0,29.85,SW,232,5.0,7.0,74,0.00,,,0.01,,2013-05-22 03:43:00,
2013-05-21 23:53:00,68.0,59.0,29.85,SW,232,5.0,7.0,74,0.00,,,0.01,,2013-05-22 03:53:00,